WA6MHA-15 Weather Reports


Display with metric or nautical units.
time (UTC)temp
F
wind
direction
speed
MPH
gust
MPH
rain 1hr
in
rain 24hr
in
rain mn
in
humidity
%
barometer
mb
20180220035528 45 310 5.0 28.0 0.00 0.00 0.00 49
20180220035127 44 292 10.0 28.0 0.00 0.00 0.00 49
20180220034725 45 291 13.0 23.0 0.00 0.00 0.00 49
20180220034323 45 307 8.0 17.0 0.00 0.00 0.00 49
20180220033921 45 298 6.0 17.0 0.00 0.00 0.00 49
20180220033520 45 322 10.0 15.0 0.00 0.00 0.00 49
20180220033117 45 279 9.0 15.0 0.00 0.00 0.00 48
20180220032717 45 315 7.0 21.0 0.00 0.00 0.00 47
20180220032313 45 281 9.0 17.0 0.00 0.00 0.00 47
20180220031509 45 313 13.0 19.0 0.00 0.00 0.00 46
20180220031108 45 293 7.0 19.0 0.00 0.00 0.00 45
20180220030706 45 288 6.0 23.0 0.00 0.00 0.00 45
20180220030304 45 292 17.0 22.0 0.00 0.00 0.00 45
20180220025902 45 317 8.0 25.0 0.00 0.00 0.00 44
20180220025501 46 295 15.0 30.0 0.00 0.00 0.00 43
20180220025058 45 317 15.0 30.0 0.00 0.00 0.00 43
20180220024658 46 262 9.0 27.0 0.00 0.00 0.00 43
20180220024254 46 289 12.0 29.0 0.00 0.00 0.00 41
20180220023854 45 300 29.0 23.0 0.00 0.00 0.00 40
20180220023451 46 285 15.0 24.0 0.00 0.00 0.00 39
20180220023049 46 293 13.0 24.0 0.00 0.00 0.00 38
20180220022647 46 295 16.0 20.0 0.00 0.00 0.00 41
20180220022245 46 261 10.0 12.0 0.00 0.00 0.00 42
20180220021844 46 336 3.0 13.0 0.00 0.00 0.00 42
20180220021442 46 323 9.0 13.0 0.00 0.00 0.00 42
20180220021039 47 291 5.0 16.0 0.00 0.00 0.00 43
20180220020639 47 257 6.0 16.0 0.00 0.00 0.00 45
20180220020235 46 293 9.0 13.0 0.00 0.00 0.00 44
20180220020110 47 306 12.0 13.0 0.00 0.00 0.00 44
20180220015807 47 307 8.0 13.0 0.00 0.00 0.00 44
20180220015505 47 324 6.0 10.0 0.00 0.00 0.00 44
20180220014859 47 313 3.0 15.0 0.00 0.00 0.00 45
20180220014253 47 322 14.0 19.0 0.00 0.00 0.00 44
20180220013953 47 285 8.0 12.0 0.00 0.00 0.00 43
20180220013917 47 334 5.0 12.0 0.00 0.00 0.00 41
20180220013649 47 334 5.0 12.0 0.00 0.00 0.00 41
20180220013347 48 284 6.0 14.0 0.00 0.00 0.00 40
20180220013007 48 324 11.0 13.0 0.00 0.00 0.00 39
20180220012741 48 324 11.0 13.0 0.00 0.00 0.00 39
20180220012439 48 286 8.0 14.0 0.00 0.00 0.00 40
20180220012138 48 274 5.0 14.0 0.00 0.00 0.00 41
20180220011833 48 300 11.0 18.0 0.00 0.00 0.00 41
20180220011534 49 312 9.0 23.0 0.00 0.00 0.00 41
20180220011231 49 306 2.0 23.0 0.00 0.00 0.00 42
20180220011148 48 316 11.0 13.0 0.00 0.00 0.00 42
20180220010959 49 306 14.0 13.0 0.00 0.00 0.00 41
20180220010928 48 316 11.0 13.0 0.00 0.00 0.00 42
20180220010817 49 306 14.0 13.0 0.00 0.00 0.00 41
20180220010625 49 306 14.0 13.0 0.00 0.00 0.00 41
20180220010417 50 291 9.0 18.0 0.00 0.00 0.00 41
20180220010328 50 291 9.0 18.0 0.00 0.00 0.00 41
20180220010324 50 310 9.0 16.0 0.00 0.00 0.00 41
20180220010020 50 291 9.0 18.0 0.00 0.00 0.00 41
20180220005717 50 319 5.0 18.0 0.00 0.00 0.00 40
20180220005414 51 289 5.0 17.0 0.00 0.00 0.00 40
20180220004809 50 302 9.0 25.0 0.00 0.00 0.00 40
20180220004505 50 345 5.0 23.0 0.00 0.00 0.00 39
20180220004203 50 305 10.0 23.0 0.00 0.00 0.00 39
20180220003900 50 303 4.0 19.0 0.00 0.00 0.00 39
20180220003559 50 298 9.0 19.0 0.00 0.00 0.00 39
20180220003254 50 315 14.0 18.0 0.00 0.00 0.00 39
20180220002952 51 43 10.0 22.0 0.00 0.00 0.00 40
20180220002346 51 35 5.0 22.0 0.00 0.00 0.00 40
20180220002046 51 313 9.0 23.0 0.00 0.00 0.00 39
20180220001741 51 327 7.0 23.0 0.00 0.00 0.00 39
20180220001437 51 285 10.0 24.0 0.00 0.00 0.00 38
20180220000831 52 313 13.0 20.0 0.00 0.00 0.00 36
20180220000529 52 302 6.0 25.0 0.00 0.00 0.00 36
20180220000226 52 338 5.0 25.0 0.00 0.00 0.00 36
20180219235806 52 232 6.0 21.0 0.00 0.00 0.00 40
20180219235622 52 327 11.0 20.0 0.00 0.00 0.00 39
20180219235317 52 232 6.0 21.0 0.00 0.00 0.00 40
20180219235014 53 313 7.0 19.0 0.00 0.00 0.00 39
20180219234714 53 295 15.0 19.0 0.00 0.00 0.00 40
20180219234409 53 351 7.0 17.0 0.00 0.00 0.00 40
20180219234108 53 306 13.0 17.0 0.00 0.00 0.00 40
20180219234102 52 271 4.0 20.0 0.00 0.00 0.00 41
20180219234017 52 271 4.0 20.0 0.00 0.00 0.00 41
20180219233802 52 271 4.0 20.0 0.00 0.00 0.00 41
20180219233500 52 316 9.0 26.0 0.00 0.00 0.00 41
20180219233159 52 298 8.0 26.0 0.00 0.00 0.00 41
20180219232551 54 302 21.0 20.0 0.00 0.00 0.00 40
20180219232252 53 286 16.0 25.0 0.00 0.00 0.00 41
20180219231037 52 302 20.0 15.0 0.00 0.00 0.00 39
20180219230734 51 309 18.0 15.0 0.00 0.00 0.00 39
20180219230432 52 306 3.0 24.0 0.00 0.00 0.00 41
20180219230129 52 310 8.0 24.0 0.00 0.00 0.00 41
20180219230051 53 315 7.0 20.0 0.00 0.00 0.00 41
20180219225826 53 315 7.0 20.0 0.00 0.00 0.00 41
20180219225736 53 345 5.0 19.0 0.00 0.00 0.00 41
20180219225522 53 345 5.0 19.0 0.00 0.00 0.00 41
20180219225222 53 295 11.0 19.0 0.00 0.00 0.00 41
20180219224616 52 313 13.0 19.0 0.00 0.00 0.00 42
20180219224311 52 270 11.0 19.0 0.00 0.00 0.00 42
20180219224010 52 277 13.0 21.0 0.00 0.00 0.00 41
20180219224004 52 305 11.0 21.0 0.00 0.00 0.00 40
20180219223706 52 305 11.0 21.0 0.00 0.00 0.00 40
20180219223434 55 334 7.0 17.0 0.00 0.00 0.00 38
20180219223401 55 334 7.0 17.0 0.00 0.00 0.00 38
20180219223100 55 334 7.0 17.0 0.00 0.00 0.00 38
20180219222759 56 315 11.0 23.0 0.00 0.00 0.00 37
20180219222458 56 300 13.0 15.0 0.00 0.00 0.00 37
20180219222154 55 296 14.0 15.0 0.00 0.00 0.00 38
20180219222138 56 309 7.0 13.0 0.00 0.00 0.00 38
20180219221849 56 309 7.0 13.0 0.00 0.00 0.00 38
20180219221548 54 310 8.0 13.0 0.00 0.00 0.00 37
20180219221248 54 303 8.0 19.0 0.00 0.00 0.00 38
20180219220942 54 267 2.0 19.0 0.00 0.00 0.00 38
20180219220637 53 282 11.0 19.0 0.00 0.00 0.00 39
20180219220338 52 334 6.0 27.0 0.00 0.00 0.00 40
20180219220032 52 323 11.0 19.0 0.00 0.00 0.00 40
20180219215731 51 295 14.0 19.0 0.00 0.00 0.00 39
20180219215428 52 303 8.0 18.0 0.00 0.00 0.00 39
20180219215124 52 317 8.0 18.0 0.00 0.00 0.00 40
20180219215047 52 292 12.0 14.0 0.00 0.00 0.00 40
20180219214820 52 292 12.0 14.0 0.00 0.00 0.00 40
20180219214516 51 320 4.0 11.0 0.00 0.00 0.00 42
20180219213915 52 323 8.0 6.0 0.00 0.00 0.00 41
20180219213609 52 285 4.0 6.0 0.00 0.00 0.00 42
20180219213003 52 192 5.0 3.0 0.00 0.00 0.00 42
20180219212925 52 255 4.0 3.0 0.00 0.00 0.00 42
20180219212700 52 255 4.0 3.0 0.00 0.00 0.00 42
20180219212631 52 270 1.0 4.0 0.00 0.00 0.00 41
20180219212516 52 270 1.0 4.0 0.00 0.00 0.00 41
20180219212357 52 270 1.0 4.0 0.00 0.00 0.00 41
20180219211753 52 157 2.0 4.0 0.00 0.00 0.00 41
20180219211450 52 236 2.0 8.0 0.00 0.00 0.00 41
20180219211146 52 130 4.0 8.0 0.00 0.00 0.00 40
20180219210843 53 210 3.0 6.0 0.00 0.00 0.00 40
20180219210757 53 307 2.0 7.0 0.00 0.00 0.00 41
20180219210540 53 307 2.0 7.0 0.00 0.00 0.00 41
20180219210238 53 136 2.0 7.0 0.00 0.00 0.00 40
20180219210148 52 292 4.0 14.0 0.00 0.00 0.00 40
20180219205934 52 292 4.0 14.0 0.00 0.00 0.00 40
20180219205634 53 337 0.0 14.0 0.00 0.00 0.00 41
20180219205026 53 293 2.0 9.0 0.00 0.00 0.00 39
20180219204118 53 271 5.0 6.0 0.00 0.00 0.00 41
20180219203736 53 298 1.0 8.0 0.00 0.00 0.00 40
20180219203510 53 298 1.0 8.0 0.00 0.00 0.00 40
20180219203350 53 208 3.0 8.0 0.00 0.00 0.00 41
20180219203208 53 208 3.0 8.0 0.00 0.00 0.00 41
20180219203116 52 264 5.0 14.0 0.00 0.00 0.00 42
20180219202906 52 264 5.0 14.0 0.00 0.00 0.00 42
20180219202604 53 272 2.0 14.0 0.00 0.00 0.00 41
20180219202527 52 320 10.0 10.0 0.00 0.00 0.00 42
20180219202259 52 320 10.0 10.0 0.00 0.00 0.00 42
20180219201049 53 298 7.0 11.0 0.00 0.00 0.00 41
20180219200749 53 309 6.0 13.0 0.00 0.00 0.00 42
20180219200443 53 300 10.0 14.0 0.00 0.00 0.00 42
20180219200142 52 296 4.0 14.0 0.00 0.00 0.00 43
20180219195230 53 164 5.0 18.0 0.00 0.00 0.00 42
20180219194929 53 277 9.0 18.0 0.00 0.00 0.00 41
20180219194325 53 236 8.0 15.0 0.00 0.00 0.00 42
20180219194023 53 233 4.0 13.0 0.00 0.00 0.00 41
20180219193718 54 291 6.0 13.0 0.00 0.00 0.00 42
20180219192808 53 281 9.0 9.0 0.00 0.00 0.00 42
20180219192507 53 271 4.0 12.0 0.00 0.00 0.00 41
20180219192203 53 241 6.0 12.0 0.00 0.00 0.00 41
20180219191901 53 12 0.0 14.0 0.00 0.00 0.00 41
20180219191556 52 265 7.0 14.0 0.00 0.00 0.00 41
20180219191516 51 289 9.0 21.0 0.00 0.00 0.00 42
20180219191255 51 289 9.0 21.0 0.00 0.00 0.00 42
20180219190954 51 313 9.0 21.0 0.00 0.00 0.00 42
20180219190044 50 284 13.0 19.0 0.00 0.00 0.00 41
20180219190041 51 317 6.0 19.0 0.00 0.00 0.00 42
20180219185740 51 317 6.0 19.0 0.00 0.00 0.00 42
20180219185441 51 312 9.0 16.0 0.00 0.00 0.00 42
20180219185137 50 313 11.0 16.0 0.00 0.00 0.00 43
20180219184832 50 303 9.0 15.0 0.00 0.00 0.00 43
20180219184529 50 320 9.0 19.0 0.00 0.00 0.00 43
20180219184227 51 309 9.0 19.0 0.00 0.00 0.00 42
20180219183923 50 291 13.0 14.0 0.00 0.00 0.00 42
20180219183624 51 313 10.0 14.0 0.00 0.00 0.00 41
20180219183320 51 284 11.0 19.0 0.00 0.00 0.00 42
20180219183019 51 312 13.0 21.0 0.00 0.00 0.00 41
20180219182935 50 307 7.0 21.0 0.00 0.00 0.00 42
20180219182712 50 307 7.0 21.0 0.00 0.00 0.00 42
20180219182423 49 309 11.0 25.0 0.00 0.00 0.00 43
20180219182106 49 309 11.0 25.0 0.00 0.00 0.00 43
20180219181805 49 326 14.0 23.0 0.00 0.00 0.00 43
20180219181502 48 299 11.0 26.0 0.00 0.00 0.00 43
20180219181201 48 337 16.0 26.0 0.00 0.00 0.00 43
20180219180857 49 322 16.0 23.0 0.00 0.00 0.00 42
20180219180555 49 315 18.0 23.0 0.00 0.00 0.00 42
20180219180251 48 317 15.0 27.0 0.00 0.00 0.00 42
20180219175948 48 316 18.0 22.0 0.00 0.00 0.00 41
20180219175345 48 298 13.0 23.0 0.00 0.00 0.00 43
20180219175041 48 322 8.0 24.0 0.00 0.00 0.00 43
20180219174434 48 317 12.0 22.0 0.00 0.00 0.00 42
20180219174131 49 299 8.0 22.0 0.00 0.00 0.00 43
20180219173827 48 306 9.0 26.0 0.00 0.00 0.00 44
20180219173525 48 312 14.0 27.0 0.00 0.00 0.00 43
20180219173224 48 313 5.0 27.0 0.00 0.00 0.00 44
20180219172926 47 292 21.0 22.0 0.00 0.00 0.00 43
20180219172922 47 315 14.0 22.0 0.00 0.00 0.00 43
20180219172617 47 292 21.0 22.0 0.00 0.00 0.00 43
20180219172317 47 300 17.0 23.0 0.00 0.00 0.00 43
20180219171711 47 319 19.0 30.0 0.00 0.00 0.00 42
20180219171406 48 288 10.0 17.0 0.00 0.00 0.00 43
20180219171306 48 313 5.0 17.0 0.00 0.00 0.00 45
20180219171104 48 313 5.0 17.0 0.00 0.00 0.00 45
20180219171101 48 300 12.0 18.0 0.00 0.00 0.00 44
20180219170802 48 300 12.0 18.0 0.00 0.00 0.00 44
20180219170500 48 279 5.0 21.0 0.00 0.00 0.00 46
20180219170421 46 295 11.0 21.0 0.00 0.00 0.00 46
20180219170332 46 295 11.0 21.0 0.00 0.00 0.00 46
20180219170156 46 295 11.0 21.0 0.00 0.00 0.00 46
20180219165854 48 334 13.0 22.0 0.00 0.00 0.00 46
20180219165551 46 300 17.0 22.0 0.00 0.00 0.00 47
20180219165309 47 319 10.0 26.0 0.00 0.00 0.00 47
20180219165248 47 323 14.0 18.0 0.00 0.00 0.00 47
20180219164945 47 319 10.0 26.0 0.00 0.00 0.00 47
20180219164939 47 282 14.0 26.0 0.00 0.00 0.00 48
20180219164643 47 282 14.0 26.0 0.00 0.00 0.00 48
20180219164039 47 292 9.0 16.0 0.00 0.00 0.00 47
20180219163720 46 319 10.0 20.0 0.00 0.00 0.00 49
20180219163432 46 319 10.0 20.0 0.00 0.00 0.00 49
20180219163428 46 312 4.0 20.0 0.00 0.00 0.00 49
20180219163316 46 312 4.0 20.0 0.00 0.00 0.00 49
20180219163131 46 312 4.0 20.0 0.00 0.00 0.00 49
20180219162829 46 322 17.0 22.0 0.00 0.00 0.00 49
20180219162527 46 303 9.0 22.0 0.00 0.00 0.00 49
20180219161948 45 284 9.0 26.0 0.00 0.00 0.00 49
20180219161922 45 306 11.0 26.0 0.00 0.00 0.00 50
20180219161820 45 284 9.0 26.0 0.00 0.00 0.00 49
20180219161620 45 284 9.0 26.0 0.00 0.00 0.00 49
20180219161327 45 312 12.0 24.0 0.00 0.00 0.00 51
20180219161018 45 312 12.0 24.0 0.00 0.00 0.00 51
20180219160714 45 336 15.0 24.0 0.00 0.00 0.00 51
20180219160411 45 322 11.0 22.0 0.00 0.00 0.00 49
20180219160110 45 302 14.0 22.0 0.00 0.00 0.00 51
20180219155515 45 309 12.0 23.0 0.00 0.00 0.00 51
20180219155507 45 298 11.0 23.0 0.00 0.00 0.00 51
20180219155414 45 309 12.0 23.0 0.00 0.00 0.00 51
20180219155204 45 309 12.0 23.0 0.00 0.00 0.00 51
20180219154902 44 303 17.0 18.0 0.00 0.00 0.00 52
20180219154600 44 330 12.0 18.0 0.00 0.00 0.00 51
20180219154258 44 338 2.0 27.0 0.00 0.00 0.00 51
20180219153956 44 272 7.0 26.0 0.00 0.00 0.00 52
20180219153655 44 322 14.0 26.0 0.00 0.00 0.00 52
20180219153351 43 333 13.0 27.0 0.00 0.00 0.00 52
20180219152747 44 319 9.0 21.0 0.00 0.00 0.00 52
20180219152445 43 323 15.0 22.0 0.00 0.00 0.00 53
20180219152143 44 309 17.0 22.0 0.00 0.00 0.00 52
20180219152036 44 298 6.0 25.0 0.00 0.00 0.00 51
20180219151839 44 315 13.0 20.0 0.00 0.00 0.00 51
20180219151716 44 298 6.0 25.0 0.00 0.00 0.00 51
20180219151542 44 298 6.0 25.0 0.00 0.00 0.00 51
20180219151221 44 296 25.0 23.0 0.00 0.00 0.00 51
20180219151118 44 296 25.0 23.0 0.00 0.00 0.00 51
20180219150932 44 296 25.0 23.0 0.00 0.00 0.00 51
20180219150629 44 313 10.0 23.0 0.00 0.00 0.00 50
20180219150359 43 305 12.0 18.0 0.00 0.00 0.00 50
20180219150327 44 312 6.0 25.0 0.00 0.00 0.00 50
20180219150221 43 305 12.0 18.0 0.00 0.00 0.00 50
20180219150055 44 306 13.0 18.0 0.00 0.00 0.00 50
20180219150024 43 305 12.0 18.0 0.00 0.00 0.00 50
20180219145721 44 306 13.0 18.0 0.00 0.00 0.00 50
20180219145417 44 316 7.0 21.0 0.00 0.00 0.00 50
20180219145415 44 289 11.0 21.0 0.00 0.00 0.00 50
20180219145144 44 322 5.0 14.0 0.00 0.00 0.00 50
20180219145115 44 289 11.0 21.0 0.00 0.00 0.00 50
20180219144917 44 309 4.0 25.0 0.00 0.00 0.00 50
20180219144811 44 322 5.0 14.0 0.00 0.00 0.00 50
20180219144631 44 309 4.0 25.0 0.00 0.00 0.00 50
20180219144511 44 306 8.0 25.0 0.00 0.00 0.00 50
20180219144509 44 309 4.0 25.0 0.00 0.00 0.00 50
20180219144218 45 319 9.0 21.0 0.00 0.00 0.00 49
20180219144205 44 306 8.0 25.0 0.00 0.00 0.00 50
20180219144042 45 319 9.0 21.0 0.00 0.00 0.00 49
20180219143903 45 319 9.0 21.0 0.00 0.00 0.00 49
20180219143649 45 284 9.0 20.0 0.00 0.00 0.00 47
20180219143608 45 284 9.0 20.0 0.00 0.00 0.00 47
20180219143603 45 279 9.0 21.0 0.00 0.00 0.00 47
20180219143513 45 284 9.0 20.0 0.00 0.00 0.00 47
20180219143259 45 284 9.0 20.0 0.00 0.00 0.00 47
20180219142957 45 316 14.0 19.0 0.00 0.00 0.00 47
20180219142954 45 302 14.0 19.0 0.00 0.00 0.00 47
20180219142654 45 302 14.0 19.0 0.00 0.00 0.00 47
20180219142614 45 310 12.0 18.0 0.00 0.00 0.00 46
20180219142315 45 310 12.0 18.0 0.00 0.00 0.00 46
20180219142231 45 306 13.0 13.0 0.00 0.00 0.00 47
20180219142143 45 306 13.0 13.0 0.00 0.00 0.00 47
20180219142048 45 306 13.0 13.0 0.00 0.00 0.00 47
20180219141952 45 313 6.0 11.0 0.00 0.00 0.00 47
20180219141744 45 306 13.0 13.0 0.00 0.00 0.00 47
20180219141737 45 313 6.0 11.0 0.00 0.00 0.00 47
20180219141526 45 313 6.0 11.0 0.00 0.00 0.00 47
20180219141125 45 317 6.0 11.0 0.00 0.00 0.00 46
20180219141023 46 247 4.0 12.0 0.00 0.00 0.00 46
20180219140722 46 247 4.0 12.0 0.00 0.00 0.00 46
20180219140320 46 291 5.0 15.0 0.00 0.00 0.00 45
20180219135517 46 310 6.0 13.0 0.00 0.00 0.00 44
20180219135347 46 265 5.0 13.0 0.00 0.00 0.00 44
20180219135315 46 265 5.0 13.0 0.00 0.00 0.00 44
20180219135115 46 265 5.0 13.0 0.00 0.00 0.00 44
20180219135026 47 312 5.0 15.0 0.00 0.00 0.00 44
20180219134915 47 312 5.0 15.0 0.00 0.00 0.00 44
20180219134713 47 312 5.0 15.0 0.00 0.00 0.00 44
20180219134610 46 295 10.0 7.0 0.00 0.00 0.00 46
20180219134510 46 295 10.0 7.0 0.00 0.00 0.00 46
20180219134311 46 295 10.0 7.0 0.00 0.00 0.00 46
20180219133910 46 317 2.0 10.0 0.00 0.00 0.00 50
20180219133508 46 323 5.0 14.0 0.00 0.00 0.00 50
20180219133432 46 315 2.0 14.0 0.00 0.00 0.00 51
20180219133105 46 315 2.0 14.0 0.00 0.00 0.00 51
20180219133015 46 327 8.0 12.0 0.00 0.00 0.00 50
20180219132929 46 327 8.0 12.0 0.00 0.00 0.00 50
20180219132704 46 327 8.0 12.0 0.00 0.00 0.00 50
20180219132507 46 302 6.0 16.0 0.00 0.00 0.00 51
20180219132301 46 302 6.0 16.0 0.00 0.00 0.00 51
20180219131900 46 323 4.0 14.0 0.00 0.00 0.00 52
20180219131642 46 255 4.0 11.0 0.00 0.00 0.00 52
20180219131458 46 255 4.0 11.0 0.00 0.00 0.00 52
20180219131427 47 319 4.0 11.0 0.00 0.00 0.00 52
20180219131140 47 289 5.0 11.0 0.00 0.00 0.00 53
20180219131056 47 319 4.0 11.0 0.00 0.00 0.00 52
20180219130835 47 289 5.0 11.0 0.00 0.00 0.00 53
20180219130654 47 289 5.0 11.0 0.00 0.00 0.00 53
20180219130616 47 288 6.0 12.0 0.00 0.00 0.00 54
20180219130253 47 288 6.0 12.0 0.00 0.00 0.00 54
20180219125850 47 292 6.0 9.0 0.00 0.00 0.00 53
20180219125048 47 324 12.0 13.0 0.00 0.00 0.00 53
20180219124858 47 324 12.0 13.0 0.00 0.00 0.00 53
20180219124645 47 324 12.0 13.0 0.00 0.00 0.00 53
20180219124545 47 313 5.0 9.0 0.00 0.00 0.00 55
20180219124243 47 298 5.0 16.0 0.00 0.00 0.00 55
20180219124039 47 313 5.0 9.0 0.00 0.00 0.00 55
20180219123841 47 313 5.0 9.0 0.00 0.00 0.00 55
20180219123439 47 326 7.0 13.0 0.00 0.00 0.00 56
20180219123038 47 307 3.0 16.0 0.00 0.00 0.00 58
20180219122636 47 286 3.0 16.0 0.00 0.00 0.00 62
20180219122631 47 316 9.0 10.0 0.00 0.00 0.00 64
20180219122515 47 316 9.0 10.0 0.00 0.00 0.00 64
20180219122234 47 316 9.0 10.0 0.00 0.00 0.00 64
20180219121831 47 313 2.0 9.0 0.00 0.00 0.00 66
20180219121804 46 330 6.0 12.0 0.00 0.00 0.00 67
20180219121615 46 330 6.0 12.0 0.00 0.00 0.00 67
20180219121430 46 330 6.0 12.0 0.00 0.00 0.00 67
20180219121030 46 247 2.0 8.0 0.00 0.00 0.00 69
20180219120959 46 281 5.0 8.0 0.00 0.00 0.00 73
20180219120626 46 281 5.0 8.0 0.00 0.00 0.00 73
20180219120538 45 305 2.0 10.0 0.00 0.00 0.00 83
20180219120415 45 305 2.0 10.0 0.00 0.00 0.00 83
20180219120224 45 305 2.0 10.0 0.00 0.00 0.00 83
20180219115823 45 312 3.0 9.0 0.00 0.00 0.00 80
20180219115611 44 309 4.0 4.0 0.00 0.00 0.00 88
20180219115420 44 309 4.0 4.0 0.00 0.00 0.00 88
20180219115020 45 268 3.0 4.0 0.00 0.00 0.00 97
20180219114616 45 322 1.0 4.0 0.00 0.00 0.00 97
20180219114548 45 78 4.0 0.0 0.00 0.00 0.00 97
20180219114332 46 15 0.0 2.0 0.00 0.00 0.00 98
20180219114215 45 78 4.0 0.0 0.00 0.00 0.00 97
20180219113813 46 15 0.0 2.0 0.00 0.00 0.00 98
20180219113412 46 21 1.0 3.0 0.00 0.00 0.00 98
20180219113009 46 56 0.0 3.0 0.00 0.00 0.00 98
20180219112918 46 57 0.0 3.0 0.00 0.00 0.00 98
20180219112841 46 57 0.0 3.0 0.00 0.00 0.00 98
20180219112608 46 57 0.0 3.0 0.00 0.00 0.00 98
20180219112207 45 42 2.0 3.0 0.00 0.00 0.00 98
20180219112146 45 19 3.0 0.0 0.00 0.00 0.00 98
20180219112115 45 19 3.0 0.0 0.00 0.00 0.00 98
20180219111804 45 19 3.0 0.0 0.00 0.00 0.00 98
20180219111404 45 101 0.0 2.0 0.00 0.00 0.00 97
20180219111002 46 102 1.0 2.0 0.00 0.00 0.00 97
20180219110944 46 68 0.0 2.0 0.00 0.00 0.00 98
20180219110559 46 68 0.0 2.0 0.00 0.00 0.00 98
20180219110159 46 47 1.0 2.0 0.00 0.00 0.00 98
20180219105910 46 61 0.0 2.0 0.00 0.00 0.00 98
20180219105756 46 61 0.0 0.0 0.00 0.00 0.00 98
20180219105602 46 61 0.0 2.0 0.00 0.00 0.00 98
20180219105343 46 61 0.0 2.0 0.00 0.00 0.00 98
20180219105135 46 61 0.0 2.0 0.00 0.00 0.00 98
20180219104951 46 61 0.0 2.0 0.00 0.00 0.00 98
20180219104942 46 82 2.0 2.0 0.00 0.00 0.00 98
20180219104550 46 82 2.0 2.0 0.00 0.00 0.00 98
20180219104527 46 75 0.0 2.0 0.00 0.00 0.00 98
20180219104148 46 75 0.0 2.0 0.00 0.00 0.00 98
20180219104129 46 101 2.0 2.0 0.00 0.00 0.00 98
20180219103746 46 101 2.0 2.0 0.00 0.00 0.00 98
20180219103349 46 82 1.0 3.0 0.00 0.00 0.00 98
20180219103345 45 108 1.0 3.0 0.00 0.00 0.00 98
20180219103251 46 82 1.0 3.0 0.00 0.00 0.00 98
20180219102943 46 82 1.0 3.0 0.00 0.00 0.00 98
20180219102541 46 94 3.0 4.0 0.00 0.00 0.00 98
20180219102140 45 105 1.0 4.0 0.00 0.00 0.00 98
20180219101738 45 99 2.0 5.0 0.00 0.00 0.00 98
20180219101336 45 104 3.0 4.0 0.00 0.00 0.00 98
20180219101243 45 95 3.0 4.0 0.00 0.00 0.00 98
20180219101128 45 95 3.0 4.0 0.00 0.00 0.00 98
20180219100935 45 95 3.0 4.0 0.00 0.00 0.00 98
20180219100933 45 95 3.0 4.0 0.00 0.00 0.00 98
20180219100910 46 99 2.0 3.0 0.00 0.00 0.00 98
20180219100740 46 99 2.0 3.0 0.00 0.00 0.00 98
20180219100534 46 99 2.0 3.0 0.00 0.00 0.00 98
20180219100532 46 99 2.0 3.0 0.00 0.00 0.00 98
20180219100458 46 111 2.0 3.0 0.00 0.00 0.00 98
20180219100130 46 111 2.0 3.0 0.00 0.00 0.00 98
20180219100028 46 101 2.0 5.0 0.00 0.00 0.00 98
20180219095925 46 101 2.0 5.0 0.00 0.00 0.00 98
20180219095731 46 101 2.0 5.0 0.00 0.00 0.00 98
20180219095729 46 101 2.0 5.0 0.00 0.00 0.00 98
20180219095328 46 113 0.0 4.0 0.00 0.00 0.00 98
20180219095115 46 101 2.0 5.0 0.00 0.00 0.00 98
20180219094927 46 101 2.0 5.0 0.00 0.00 0.00 98
20180219094925 46 101 2.0 5.0 0.00 0.00 0.00 98
20180219094523 46 90 3.0 3.0 0.00 0.00 0.00 98
20180219094419 45 108 3.0 3.0 0.00 0.00 0.00 98
20180219094121 45 108 3.0 3.0 0.00 0.00 0.00 98
20180219093608 45 77 3.0 2.0 0.00 0.00 0.00 98
20180219093438 45 77 3.0 2.0 0.00 0.00 0.00 98
20180219093321 45 77 3.0 2.0 0.00 0.00 0.00 98
20180219093318 45 77 3.0 2.0 0.00 0.00 0.00 98
20180219093304 46 43 0.0 0.0 0.00 0.00 0.00 98
20180219092916 46 43 0.0 0.0 0.00 0.00 0.00 98
20180219092900 46 43 0.0 0.0 0.00 0.00 0.00 97
20180219092516 46 43 0.0 0.0 0.00 0.00 0.00 97
20180219092514 46 43 0.0 0.0 0.00 0.00 0.00 97
20180219092115 46 43 0.0 0.0 0.00 0.00 0.00 97
20180219091632 46 43 0.0 3.0 0.00 0.00 0.00 97
20180219091444 46 43 0.0 3.0 0.00 0.00 0.00 97
20180219091308 46 43 0.0 3.0 0.00 0.00 0.00 97
20180219091000 47 85 1.0 4.0 0.00 0.00 0.00 97
20180219090635 47 85 1.0 4.0 0.00 0.00 0.00 97
20180219090507 47 85 1.0 4.0 0.00 0.00 0.00 97
20180219090505 47 85 1.0 4.0 0.00 0.00 0.00 97
20180219090136 48 95 0.0 2.0 0.00 0.00 0.00 97
20180219090103 48 88 3.0 4.0 0.00 0.00 0.00 97
20180219090055 48 95 0.0 2.0 0.00 0.00 0.00 97
20180219085913 48 95 0.0 2.0 0.00 0.00 0.00 97
20180219085703 48 95 0.0 2.0 0.00 0.00 0.00 97
20180219085701 48 95 0.0 2.0 0.00 0.00 0.00 97
20180219084910 49 21 0.0 3.0 0.00 0.00 0.00 97
20180219084901 48 71 2.0 3.0 0.00 0.00 0.00 97
20180219084747 49 21 0.0 3.0 0.00 0.00 0.00 97
20180219084458 49 21 0.0 3.0 0.00 0.00 0.00 97
20180219084456 49 21 0.0 3.0 0.00 0.00 0.00 97
20180219084416 48 60 0.0 3.0 0.00 0.00 0.00 97
20180219084054 48 60 0.0 3.0 0.00 0.00 0.00 97
20180219084017 48 143 0.0 4.0 0.00 0.00 0.00 96
20180219083922 48 143 0.0 4.0 0.00 0.00 0.00 96
20180219083653 48 143 0.0 4.0 0.00 0.00 0.00 96
20180219083520 48 151 3.0 6.0 0.00 0.00 0.00 96
20180219083250 48 151 3.0 6.0 0.00 0.00 0.00 96
20180219083145 48 165 4.0 6.0 0.00 0.00 0.00 97
20180219082849 48 165 4.0 6.0 0.00 0.00 0.00 97
20180219082447 48 108 5.0 0.0 0.00 0.00 0.00 96
20180219082048 49 153 0.0 0.0 0.00 0.00 0.00 96
20180219081643 49 153 0.0 2.0 0.00 0.00 0.00 96
20180219081640 49 153 0.0 2.0 0.00 0.00 0.00 97
20180219081258 50 146 1.0 5.0 0.00 0.00 0.00 97
20180219081242 49 153 0.0 2.0 0.00 0.00 0.00 97
20180219081028 50 146 1.0 5.0 0.00 0.00 0.00 97
20180219080840 50 146 1.0 5.0 0.00 0.00 0.00 97
20180219080438 50 234 1.0 4.0 0.00 0.00 0.00 97
20180219080345 50 140 2.0 7.0 0.00 0.00 0.00 96
20180219080036 50 140 2.0 7.0 0.00 0.00 0.00 96
20180219075637 50 139 2.0 7.0 0.00 0.00 0.00 96
20180219075234 51 226 4.0 6.0 0.00 0.00 0.00 96
20180219075053 51 177 3.0 4.0 0.00 0.00 0.00 96
20180219074843 52 227 2.0 6.0 0.00 0.00 0.00 96
20180219074831 51 177 3.0 4.0 0.00 0.00 0.00 96
20180219074429 52 227 2.0 6.0 0.00 0.00 0.00 96
20180219074030 52 19 1.0 5.0 0.00 0.00 0.00 96
20180219073626 52 191 3.0 5.0 0.00 0.00 0.00 96
20180219073538 51 137 2.0 4.0 0.00 0.00 0.00 96
20180219073224 51 137 2.0 4.0 0.00 0.00 0.00 96
20180219072422 51 147 0.0 3.0 0.00 0.00 0.00 96
20180219072027 51 122 1.0 6.0 0.00 0.00 0.00 96
20180219072020 51 120 1.0 6.0 0.00 0.00 0.00 96
20180219071617 51 122 1.0 6.0 0.00 0.00 0.00 96
20180219071217 51 30 1.0 7.0 0.00 0.00 0.00 96
20180219070012 51 73 6.0 5.0 0.00 0.00 0.00 96
20180219065916 51 136 4.0 5.0 0.00 0.00 0.00 97
20180219065608 51 136 4.0 5.0 0.00 0.00 0.00 97
20180219065209 51 177 1.0 5.0 0.00 0.00 0.00 96
20180219065052 51 140 2.0 5.0 0.00 0.00 0.00 96
20180219064949 51 140 2.0 5.0 0.00 0.00 0.00 96
20180219064804 51 140 2.0 5.0 0.00 0.00 0.00 96
20180219064730 52 172 3.0 6.0 0.00 0.00 0.00 96
20180219064403 52 172 3.0 6.0 0.00 0.00 0.00 96
20180219064004 52 220 0.0 6.0 0.00 0.00 0.00 96
20180219063916 51 116 4.0 6.0 0.00 0.00 0.00 96
20180219063827 51 116 4.0 6.0 0.00 0.00 0.00 96
20180219063559 51 116 4.0 6.0 0.00 0.00 0.00 96
20180219063157 51 144 0.0 4.0 0.00 0.00 0.00 96
20180219062756 51 168 0.0 5.0 0.00 0.00 0.00 96
20180219062656 51 160 3.0 0.0 0.00 0.00 0.00 96
20180219062608 51 160 3.0 0.0 0.00 0.00 0.00 96
20180219062353 51 160 3.0 0.0 0.00 0.00 0.00 96
20180219062343 51 77 0.0 4.0 0.00 0.00 0.00 96
20180219061952 51 77 0.0 4.0 0.00 0.00 0.00 96
20180219061906 51 77 0.0 4.0 0.00 0.00 0.00 96
20180219061550 51 77 0.0 4.0 0.00 0.00 0.00 96
20180219061150 52 191 1.0 4.0 0.00 0.00 0.00 96
20180219060748 52 154 1.0 4.0 0.00 0.00 0.00 96
20180219060346 51 87 0.0 6.0 0.00 0.00 0.00 96
20180219055944 51 116 2.0 4.0 0.00 0.00 0.00 96
20180219055439 52 92 2.0 3.0 0.00 0.00 0.00 96
20180219055139 52 92 2.0 3.0 0.00 0.00 0.00 96
20180219055051 52 135 0.0 2.0 0.00 0.00 0.00 96
20180219054738 52 144 2.0 5.0 0.00 0.00 0.00 96
20180219054336 52 144 2.0 5.0 0.00 0.00 0.00 96
20180219054305 51 143 1.0 0.0 0.00 0.00 0.00 96
20180219053934 51 143 1.0 0.0 0.00 0.00 0.00 96
20180219053855 51 160 0.0 4.0 0.00 0.00 0.00 96
20180219053532 51 160 0.0 4.0 0.00 0.00 0.00 96
20180219053422 51 160 0.0 4.0 0.00 0.00 0.00 96
20180219053131 51 160 0.0 4.0 0.00 0.00 0.00 96
20180219053026 52 160 0.0 3.0 0.00 0.00 0.00 96
20180219052729 52 160 0.0 3.0 0.00 0.00 0.00 96
20180219052610 51 123 0.0 3.0 0.00 0.00 0.00 95
20180219052327 51 123 0.0 3.0 0.00 0.00 0.00 95
20180219052232 51 123 1.0 0.0 0.00 0.00 0.00 95
20180219051925 51 123 1.0 0.0 0.00 0.00 0.00 95
20180219051909 52 115 0.0 6.0 0.00 0.00 0.00 95
20180219051524 52 115 0.0 6.0 0.00 0.00 0.00 95
20180219051442 52 115 0.0 6.0 0.00 0.00 0.00 95
20180219051121 52 115 0.0 6.0 0.00 0.00 0.00 95
20180219051015 51 106 2.0 7.0 0.00 0.00 0.00 95
20180219050720 51 106 2.0 7.0 0.00 0.00 0.00 95
20180219050318 52 53 4.0 8.0 0.00 0.00 0.00 95
20180219050229 51 94 4.0 6.0 0.00 0.00 0.00 95
20180219045916 51 94 4.0 6.0 0.00 0.00 0.00 95
20180219045515 51 153 5.0 9.0 0.00 0.00 0.00 95
20180219045113 52 102 4.0 9.0 0.00 0.00 0.00 95
20180219044713 52 168 6.0 6.0 0.00 0.00 0.00 95
20180219044327 52 116 2.0 6.0 0.00 0.00 0.00 95
20180219044310 52 63 3.0 8.0 0.00 0.00 0.00 95
20180219043907 52 116 2.0 6.0 0.00 0.00 0.00 95
20180219043826 52 172 5.0 7.0 0.00 0.00 0.00 95
20180219043506 52 172 5.0 7.0 0.00 0.00 0.00 95
20180219043339 52 157 3.0 7.0 0.00 0.00 0.00 95
20180219043104 52 157 3.0 7.0 0.00 0.00 0.00 95
20180219042449 52 105 4.0 5.0 0.00 0.00 0.00 95
20180219042300 52 146 1.0 5.0 0.00 0.00 0.00 95
20180219041859 52 105 4.0 5.0 0.00 0.00 0.00 95
20180219041457 52 125 2.0 4.0 0.00 0.00 0.00 95
20180219041345 53 164 0.0 4.0 0.00 0.00 0.00 95
20180219041056 53 164 0.0 4.0 0.00 0.00 0.00 95
20180219040254 52 208 0.0 5.0 0.00 0.00 0.00 95
20180219040128 52 146 3.0 3.0 0.00 0.00 0.00 95
20180219035849 52 146 3.0 3.0 0.00 0.00 0.00 95
20180219035729 52 154 3.0 2.0 0.00 0.00 0.00 95